Hourly Weather Lugovaya

Today, 10 May, Monday

Time Temperature Precipitation Wind Pressure Humidity
00:00 +2°C° 0 mm 3 mps 748 mmHg 85%
01:00 +2°C° 0 mm 3 mps 749 mmHg 85%
02:00 +1°C° 0 mm 4 mps 749 mmHg 84%
03:00 +1°C° 0 mm 4 mps 750 mmHg 83%
04:00 +1°C° 0 mm 4 mps 750 mmHg 82%
05:00 +1°C° 0 mm 4 mps 751 mmHg 81%
06:00 +1°C° 0 mm 4 mps 751 mmHg 80%
07:00 +3°C° 0 mm 5 mps 751 mmHg 72%
08:00 +5°C° 0 mm 6 mps 752 mmHg 63%
09:00 +6°C° 0 mm 7 mps 752 mmHg 55%
10:00 +8°C° 0 mm 7 mps 752 mmHg 52%
11:00 +9°C° 0 mm 8 mps 752 mmHg 50%
12:00 +10°C° 0 mm 8 mps 752 mmHg 47%
13:00 +10°C° 0 mm 8 mps 752 mmHg 47%
14:00 +11°C° 0 mm 8 mps 752 mmHg 48%
15:00 +11°C° 0 mm 8 mps 752 mmHg 48%
16:00 +11°C° 0 mm 7 mps 752 mmHg 52%
17:00 +11°C° 0 mm 7 mps 752 mmHg 56%
18:00 +10°C° 0 mm 6 mps 752 mmHg 60%
19:00 +10°C° 0 mm 6 mps 752 mmHg 61%
20:00 +9°C° 0 mm 6 mps 752 mmHg 63%
21:00 +8°C° 0 mm 6 mps 752 mmHg 65%
22:00 +8°C° 0 mm 6 mps 752 mmHg 68%
23:00 +7°C° 0 mm 6 mps 752 mmHg 71%

Tomorrow, 11 May, Tuesday

Time Temperature Precipitation Wind Pressure Humidity
00:00 +7°C° 0 mm 6 mps 752 mmHg 74%
01:00 +7°C° 0 mm 6 mps 752 mmHg 77%
02:00 +5°C° 0 mm 6 mps 752 mmHg 81%
03:00 +6°C° 0 mm 5 mps 751 mmHg 84%
04:00 +5°C° 0 mm 6 mps 751 mmHg 85%
05:00 +5°C° 0 mm 6 mps 751 mmHg 87%
06:00 +5°C° 0 mm 6 mps 751 mmHg 88%
07:00 +8°C° 0 mm 6 mps 751 mmHg 84%
08:00 +10°C° 0 mm 7 mps 751 mmHg 81%
09:00 +11°C° 0 mm 7 mps 751 mmHg 78%
10:00 +14°C° 0 mm 7 mps 751 mmHg 75%
11:00 +15°C° 0 mm 8 mps 751 mmHg 72%
12:00 +17°C° 0 mm 8 mps 751 mmHg 69%
13:00 +18°C° 0.1 mm 8 mps 751 mmHg 69%
14:00 +18°C° 0.1 mm 7 mps 751 mmHg 69%
15:00 +18°C° 0.1 mm 7 mps 751 mmHg 68%
16:00 +16°C° 0.6 mm 6 mps 751 mmHg 76%
17:00 +14°C° 0.6 mm 5 mps 751 mmHg 83%
18:00 +12°C° 0.6 mm 3 mps 752 mmHg 90%
19:00 +11°C° 0 mm 3 mps 752 mmHg 91%
20:00 +10°C° 0 mm 3 mps 753 mmHg 91%
21:00 +10°C° 0 mm 2 mps 753 mmHg 91%
22:00 +9°C° 0 mm 2 mps 753 mmHg 91%
23:00 +8°C° 0 mm 2 mps 753 mmHg 90%

Day after tomorrow, 12 May, Wednesday

Time Temperature Precipitation Wind Pressure Humidity
00:00 +8°C° 0 mm 2 mps 753 mmHg 90%
01:00 +7°C° 0 mm 2 mps 753 mmHg 90%
02:00 +7°C° 0 mm 2 mps 753 mmHg 90%
03:00 +7°C° 0 mm 2 mps 753 mmHg 90%
04:00 +7°C° 0 mm 2 mps 753 mmHg 89%
05:00 +8°C° 0 mm 2 mps 753 mmHg 89%
06:00 +8°C° 0 mm 2 mps 753 mmHg 88%
07:00 +8°C° 0.1 mm 2 mps 753 mmHg 88%
08:00 +9°C° 0.1 mm 2 mps 752 mmHg 89%
09:00 +9°C° 0.1 mm 2 mps 752 mmHg 89%
10:00 +10°C° 1.4 mm 1 mps 751 mmHg 91%
11:00 +9°C° 1.4 mm 1 mps 751 mmHg 94%
12:00 +9°C° 1.4 mm 1 mps 750 mmHg 96%
13:00 +9°C° 1.2 mm 1 mps 750 mmHg 96%
14:00 +8°C° 1.2 mm 2 mps 749 mmHg 95%
15:00 +8°C° 1.2 mm 2 mps 749 mmHg 95%
16:00 +9°C° 0.3 mm 2 mps 749 mmHg 90%
17:00 +10°C° 0.3 mm 3 mps 749 mmHg 86%
18:00 +10°C° 0.3 mm 3 mps 749 mmHg 81%
19:00 +10°C° 0 mm 3 mps 749 mmHg 84%
20:00 +9°C° 0 mm 3 mps 749 mmHg 87%
21:00 +8°C° 0 mm 3 mps 749 mmHg 91%
22:00 +7°C° 0 mm 4 mps 749 mmHg 91%
23:00 +7°C° 0 mm 4 mps 749 mmHg 92%

13 May, Thursday

Time Temperature Precipitation Wind Pressure Humidity
00:00 +6°C° 0 mm 4 mps 749 mmHg 93%
01:00 +7°C° 0 mm 4 mps 749 mmHg 93%
02:00 +7°C° 0 mm 4 mps 749 mmHg 93%
03:00 +8°C° 0 mm 4 mps 749 mmHg 93%
04:00 +8°C° 0 mm 4 mps 748 mmHg 93%
05:00 +9°C° 0 mm 3 mps 748 mmHg 93%
06:00 +9°C° 0 mm 3 mps 748 mmHg 93%
07:00 +11°C° 0.1 mm 3 mps 748 mmHg 89%
08:00 +12°C° 0.1 mm 4 mps 748 mmHg 85%
09:00 +14°C° 0.1 mm 4 mps 748 mmHg 82%
10:00 +15°C° 0.1 mm 4 mps 748 mmHg 75%
11:00 +17°C° 0.1 mm 4 mps 748 mmHg 69%
12:00 +19°C° 0.1 mm 3 mps 748 mmHg 63%
13:00 +19°C° 0 mm 3 mps 748 mmHg 61%
14:00 +19°C° 0 mm 3 mps 747 mmHg 59%
15:00 +20°C° 0 mm 2 mps 747 mmHg 57%
16:00 +19°C° 0 mm 2 mps 747 mmHg 60%
17:00 +19°C° 0 mm 2 mps 747 mmHg 64%
18:00 +20°C° 0 mm 1 mps 747 mmHg 67%
19:00 +19°C° 0 mm 1 mps 747 mmHg 70%
20:00 +17°C° 0 mm 2 mps 747 mmHg 73%
21:00 +15°C° 0 mm 2 mps 747 mmHg 76%
22:00 +15°C° 0 mm 2 mps 747 mmHg 80%
23:00 +14°C° 0 mm 2 mps 747 mmHg 85%

14 May, Friday

Time Temperature Precipitation Wind Pressure Humidity
00:00 +13°C° 0 mm 3 mps 747 mmHg 89%
01:00 +13°C° 0 mm 3 mps 747 mmHg 91%
02:00 +13°C° 0 mm 3 mps 747 mmHg 92%
03:00 +13°C° 0 mm 3 mps 747 mmHg 94%
04:00 +13°C° 0 mm 3 mps 747 mmHg 94%
05:00 +13°C° 0 mm 3 mps 747 mmHg 93%
06:00 +13°C° 0 mm 4 mps 747 mmHg 93%
07:00 +15°C° 0 mm 4 mps 747 mmHg 88%
08:00 +16°C° 0 mm 5 mps 746 mmHg 83%
09:00 +19°C° 0 mm 6 mps 746 mmHg 78%
10:00 +20°C° 0 mm 6 mps 746 mmHg 74%
11:00 +21°C° 0 mm 6 mps 746 mmHg 69%
12:00 +23°C° 0 mm 7 mps 745 mmHg 65%
13:00 +23°C° 0 mm 6 mps 745 mmHg 64%
14:00 +23°C° 0 mm 6 mps 745 mmHg 63%
15:00 +24°C° 0 mm 6 mps 745 mmHg 63%
16:00 +23°C° 0.3 mm 5 mps 745 mmHg 67%
17:00 +22°C° 0.3 mm 4 mps 744 mmHg 72%
18:00 +23°C° 0.3 mm 2 mps 744 mmHg 77%
19:00 +21°C° 1.5 mm 3 mps 744 mmHg 80%
20:00 +20°C° 1.5 mm 3 mps 743 mmHg 84%
21:00 +19°C° 1.5 mm 4 mps 743 mmHg 88%
22:00 +18°C° 1.2 mm 3 mps 743 mmHg 90%
23:00 +18°C° 1.2 mm 3 mps 743 mmHg 92%

15 May, Saturday

Time Temperature Precipitation Wind Pressure Humidity
00:00 +17°C° 1.2 mm 3 mps 743 mmHg 94%
01:00 +17°C° 0.1 mm 2 mps 743 mmHg 94%
02:00 +16°C° 0.1 mm 2 mps 743 mmHg 94%
03:00 +16°C° 0.1 mm 1 mps 743 mmHg 94%
04:00 +16°C° 0.5 mm 1 mps 743 mmHg 94%
05:00 +16°C° 0.5 mm 1 mps 743 mmHg 94%
06:00 +18°C° 0.5 mm 1 mps 743 mmHg 94%
07:00 +19°C° 0 mm 1 mps 743 mmHg 90%
08:00 +20°C° 0 mm 1 mps 743 mmHg 86%
09:00 +21°C° 0 mm 1 mps 743 mmHg 81%
10:00 +22°C° 0.2 mm 1 mps 743 mmHg 78%
11:00 +23°C° 0.2 mm 1 mps 743 mmHg 74%
12:00 +24°C° 0.2 mm 2 mps 743 mmHg 70%
13:00 +24°C° 1.2 mm 2 mps 743 mmHg 70%
14:00 +24°C° 1.2 mm 1 mps 742 mmHg 69%
15:00 +23°C° 1.2 mm 1 mps 742 mmHg 69%
16:00 +23°C° 1.2 mm 1 mps 742 mmHg 74%
17:00 +21°C° 1.2 mm 2 mps 742 mmHg 78%
18:00 +20°C° 1.2 mm 3 mps 742 mmHg 83%
19:00 +19°C° 0.4 mm 3 mps 742 mmHg 87%
20:00 +17°C° 0.4 mm 3 mps 742 mmHg 90%
21:00 +16°C° 0.4 mm 3 mps 742 mmHg 94%
22:00 +15°C° 0 mm 2 mps 742 mmHg 94%
23:00 +15°C° 0 mm 2 mps 742 mmHg 94%
Show more

We Need Your Consent

Meteoprog and our Service Providers may store and access personal data such as cookies, device identifiers or other similar technologies on your device and process such data to personalise content and ads, as well as provide social media features and to analyse the traffic.

  • Store and/or access information on your device

    Cookies, device identifiers or other information can be stored or accessed on your device for the purposes indicated above.

  • Personalised ads and content, ad and content measurement, audience insights, and products development

    Ads and content can be personalised based on a profile. More data can be added to better personalise ads and content. Ad and content performance can be measured. Insights about the audience who saw the ads and content can be derived. Such data can be used to develop or improve user’s experience, systems and software.

By clicking ‘I Agree’ you will allow the use of indicated cookies, device identifiers, web beacons or other similar technologies. Your settings can be changed in the browser on your device.

For certain purposes, legitimate interests may be relied on, rather than consent. You can read more about this in our Privacy and Cookie Policy.